Tracking 25648 objects as of 17-May-2022
HD Live streaming from Space Station
objects crossing your sky now

FREGAT DEB

Track FREGAT DEB now!
10-day predictions


NORAD ID: 45891
Int'l Code: 2011-037DL
Perigee: 662.3 km
Apogee: 3,104.0 km
Inclination: 51.4 °
Period: 124.4 minutes
Semi major axis: 8254 km
RCS: Unknown
Launch date: July 18, 2011
Source: Commonwealth of Independent States (former USSR) (CIS)
Launch site: TYURATAM MISSILE AND SPACE COMPLEX (TTMTR)

Note: This is SATELLITE DEBRIS
aabbcc
Your satellite tracking list
Your tracking list is empty




NASA's NSSDC Master Catalog

Two Line Element Set (TLE):
1 45891U 11037DL  22136.52367935 -.00006605  00000-0 -72053-2 0  9991
2 45891  51.3867 311.4700 1479043  15.1959 348.8739 11.57695348 78144
Source of the keplerian elements: AFSPC